Cairns, Queensland

3:32 AM AEST on July 30, 2016 (GMT +1000)
Cairns International

Weather History for YBCS - June, 2012

Change the Weather History Date:

Saturday, June 2, 2012

  Actual Average Record
Temperature  
Mean Temperature 70 °F -  
Max Temperature 75 °F 78 °F 84 °F (2015)
Min Temperature 66 °F 64 °F 51 °F (2011)
Cooling Degree Days 6    
Growing Degree Days 20 (Base 50)    
Moisture  
Dew Point 67 °F    
Average Humidity 86    
Maximum Humidity 100    
Minimum Humidity 71    
Precipitation  
Precipitation 0.20 in 0.06 in - ()
Sea Level Pressure  
Sea Level Pressure 29.88 in    
Wind  
Wind Speed 9 mph ()    
Max Wind Speed 14 mph    
Max Gust Speed -    
Visibility 6.4 miles    
Events Rain    
Averages and records for this station are not official NWS values.
T = Trace of Precipitation, MM = Missing Value Source: Averaged Metar Reports

Daily Weather History Graph

Daily Weather History Graph

Search for Another Location

Airport or City:

Trip Planner

Search our weather history database for the weather conditions in past years. The results will help you decide how hot, cold, wet, or windy it might be!

Date:

Astronomy

Jun. 02, 2012 Rise Set
Actual Time 6:39 AM AEST 5:50 PM AEST
Civil Twilight 6:16 AM AEST 6:13 PM AEST
Nautical Twilight 5:49 AM AEST 6:40 PM AEST
Astronomical Twilight 5:22 AM AEST 7:07 PM AEST
Moon 3:42 PM AEST (6/2) 3:53 AM AEST (6/2)
Length of Visible Light 11h 57m
Length of Day
11h 10m
Waxing Gibbous, 92% of the Moon is Illuminated
Jun 2
Waxing Gibbous
Jun 4
Full
Jun 11
Last Quarter
Jun 20
New
Jun 27
First Quarter

Hourly Weather History & Observations

Time (AEST) Temp. Dew Point Humidity Pressure Visibility Wind Dir Wind Speed Gust Speed Precip Events Conditions
12:00 AM 71 °F 68 °F 86% 29.93 in - SSE 13.8 mph - -   Overcast
12:00 AM 69.8 °F 68.0 °F 94% 29.92 in 6.2 mi SSE 13.8 mph - N/A   Mostly Cloudy
12:30 AM 69.8 °F 68.0 °F 94% 29.92 in 5.0 mi SSE 10.4 mph - N/A Rain Light Rain Showers
1:00 AM 70 °F 68 °F 90% 29.92 in - South 9.2 mph - -  
1:00 AM 69.8 °F 68.0 °F 94% 29.92 in 6.2 mi South 9.2 mph - N/A   Mostly Cloudy
1:30 AM 69.8 °F 66.2 °F 88% 29.89 in 6.2 mi South 8.1 mph - N/A   Mostly Cloudy
2:00 AM 69.8 °F 66.2 °F 88% 29.89 in 6.2 mi South 9.2 mph - N/A Rain Light Rain Showers
2:30 AM 71.6 °F 66.2 °F 83% 29.89 in 6.2 mi South 10.4 mph - N/A   Mostly Cloudy
3:00 AM 71 °F 67 °F 82% 29.88 in - South 10.4 mph - -   Overcast
3:00 AM 71.6 °F 66.2 °F 83% 29.86 in 5.0 mi South 10.4 mph - N/A Rain Light Rain Showers
3:30 AM 69.8 °F 68.0 °F 94% 29.86 in 6.2 mi South 10.4 mph - N/A   Mostly Cloudy
4:00 AM 70 °F 67 °F 87% 29.88 in - SSE 8.1 mph - -  
4:00 AM 69.8 °F 66.2 °F 88% 29.86 in 6.2 mi SSE 8.1 mph - N/A   Mostly Cloudy
4:30 AM 69.8 °F 68.0 °F 94% 29.86 in 6.2 mi SE 8.1 mph - N/A   Mostly Cloudy
5:00 AM 71.6 °F 66.2 °F 83% 29.86 in 4.3 mi South 11.5 mph - N/A Rain Light Rain Showers
5:30 AM 69.8 °F 68.0 °F 94% 29.89 in 4.3 mi South 8.1 mph - N/A Rain Light Rain Showers
6:00 AM 71 °F 66 °F 80% 29.88 in 9 mi South 5.8 mph - - Rain Light Rain Showers
6:00 AM 71.6 °F 66.2 °F 83% 29.89 in 6.2 mi South 5.8 mph - N/A   Mostly Cloudy
6:30 AM 71.6 °F 66.2 °F 83% 29.89 in 6.2 mi South 12.7 mph - N/A   Mostly Cloudy
7:00 AM 71 °F 66 °F 80% 29.90 in - South 10.4 mph - -  
7:00 AM 71.6 °F 66.2 °F 83% 29.89 in 6.2 mi South 10.4 mph - N/A   Mostly Cloudy
7:30 AM 71.6 °F 66.2 °F 83% 29.89 in 6.2 mi South 10.4 mph - N/A   Mostly Cloudy
8:00 AM 71.6 °F 66.2 °F 83% 29.89 in 6.2 mi South 8.1 mph - N/A   Mostly Cloudy
8:30 AM 73.4 °F 66.2 °F 78% 29.92 in 6.2 mi South 10.4 mph - N/A   Mostly Cloudy
9:00 AM 73 °F 67 °F 76% 29.92 in 19 mi South 10.4 mph - -   Mostly Cloudy
9:00 AM 73.4 °F 66.2 °F 78% 29.92 in 6.2 mi South 10.4 mph - N/A   Mostly Cloudy
9:30 AM 73.4 °F 68.0 °F 83% 29.92 in 6.2 mi SSE 9.2 mph - N/A   Mostly Cloudy
10:00 AM 72 °F 69 °F 88% 29.94 in - SE 9.2 mph - -  
10:00 AM 71.6 °F 69.8 °F 94% 29.92 in 6.2 mi SE 9.2 mph - N/A Rain Light Rain Showers
10:30 AM 73.4 °F 68.0 °F 83% 29.92 in 6.2 mi SSE 8.1 mph - N/A   Mostly Cloudy
11:00 AM 75.2 °F 68.0 °F 78% 29.89 in 6.2 mi SSE 8.1 mph - N/A   Mostly Cloudy
11:30 AM 75.2 °F 68.0 °F 78% 29.89 in 6.2 mi SSE 8.1 mph - N/A   Mostly Cloudy
12:00 PM 75 °F 67 °F 71% 29.89 in 16 mi SSE 5.8 mph - -   Partly Cloudy
12:00 PM 75.2 °F 68.0 °F 78% 29.89 in 6.2 mi SSE 5.8 mph - N/A   Mostly Cloudy
12:29 PM 75.2 °F 68.0 °F 78% 29.86 in 3.7 mi SSE 9.2 mph - N/A Rain Light Rain Showers
12:30 PM 75.2 °F 68.0 °F 78% 29.86 in 3.1 mi SSE 9.2 mph - N/A Rain Light Rain Showers
1:00 PM 73 °F 70 °F 87% 29.88 in - SSE 6.9 mph - -  
1:00 PM 73.4 °F 69.8 °F 88% 29.86 in 3.1 mi SSE 6.9 mph - N/A Rain Light Rain Showers
1:30 PM 73.4 °F 69.8 °F 88% 29.86 in 5.0 mi SE 10.4 mph - N/A Rain Light Rain
2:00 PM 71.6 °F 69.8 °F 94% 29.86 in 3.7 mi SE 10.4 mph - N/A Rain Light Rain
2:09 PM 71.6 °F 69.8 °F 94% 29.86 in 2.5 mi SE 8.1 mph - N/A Rain Rain Showers
2:30 PM 71.6 °F 69.8 °F 94% 29.83 in 2.5 mi ESE 8.1 mph - N/A Rain Light Rain
3:00 PM 73 °F 71 °F 90% 29.84 in 4 mi South 10.4 mph - - Rain Light Rain
3:00 PM 73.4 °F 71.6 °F 94% 29.83 in 3.7 mi South 10.4 mph - N/A Rain Light Rain
3:04 PM 71.6 °F 69.8 °F 94% 29.83 in 5.0 mi South 10.4 mph - N/A   Mostly Cloudy
3:30 PM 71.6 °F 69.8 °F 94% 29.83 in 6.2 mi SSE 10.4 mph - N/A   Mostly Cloudy
4:00 PM 72 °F 68 °F 83% 29.84 in - South 10.4 mph - -  
4:00 PM 71.6 °F 68.0 °F 88% 29.83 in 6.2 mi South 10.4 mph - N/A   Mostly Cloudy
4:30 PM 73.4 °F 68.0 °F 83% 29.83 in 6.2 mi SSE 13.8 mph - N/A   Mostly Cloudy
5:00 PM 71.6 °F 68.0 °F 88% 29.83 in 6.2 mi SSE 10.4 mph - N/A   Mostly Cloudy
5:30 PM 71.6 °F 68.0 °F 88% 29.83 in 6.2 mi SSE 9.2 mph - N/A   Scattered Clouds
6:00 PM 70 °F 67 °F 87% 29.86 in 16 mi SSE 8.1 mph - -   Partly Cloudy
6:00 PM 69.8 °F 66.2 °F 88% 29.86 in 6.2 mi SSE 8.1 mph - N/A   Mostly Cloudy
6:30 PM 69.8 °F 66.2 °F 88% 29.86 in 6.2 mi South 9.2 mph - N/A   Mostly Cloudy
7:00 PM 70 °F 66 °F 83% 29.88 in - South 11.5 mph - -  
7:00 PM 69.8 °F 66.2 °F 88% 29.86 in 6.2 mi South 11.5 mph - N/A   Mostly Cloudy
7:30 PM 69.8 °F 66.2 °F 88% 29.86 in 6.2 mi South 12.7 mph - N/A   Scattered Clouds
8:00 PM 69.8 °F 64.4 °F 83% 29.86 in 6.2 mi South 9.2 mph - N/A   Partly Cloudy
8:30 PM 69.8 °F 64.4 °F 83% 29.89 in 6.2 mi South 8.1 mph - N/A   Partly Cloudy
9:00 PM 71 °F 64 °F 73% 29.89 in 16 mi South 5.8 mph - -   Partly Cloudy
9:00 PM 69.8 °F 64.4 °F 83% 29.89 in 6.2 mi South 5.8 mph - N/A   Partly Cloudy
9:30 PM 69.8 °F 64.4 °F 83% 29.89 in 6.2 mi WSW 2.3 mph - N/A   Partly Cloudy
10:00 PM 70 °F 64 °F 76% 29.90 in - SSW 4.6 mph - -  
10:00 PM 69.8 °F 64.4 °F 83% 29.89 in 6.2 mi SSW 4.6 mph - N/A   Scattered Clouds
10:30 PM 68.0 °F 64.4 °F 88% 29.89 in 6.2 mi Calm Calm - N/A   Scattered Clouds
11:00 PM 66.2 °F 66.2 °F 100% 29.89 in 6.2 mi Calm Calm - N/A   Partly Cloudy
11:30 PM 66.2 °F 64.4 °F 94% 29.89 in 6.2 mi Calm Calm - N/A   Partly Cloudy